Regional Weather Roundup
Issued by NWS

Home | Current Version | Previous Version | Graphics & Text | Print | Product List | Glossary On
Versions: 1 2 3 4 5 6 7 8 9 10 11 12 13 14 15 16 17 18 19 20 21 22 23 24 25 26 27 28 29 30 31 32 33 34 35 36 37 38 39 40 41 42 43 44 45 46 47 48 49 50
000
ASUS43 KDMX 231606
RWRIA

WEATHER ROUNDUP FOR IOWA
NATIONAL WEATHER SERVICE DES MOINES IA
1000 AM CST FRI FEB 23 2018

NOTE: "FAIR" INDICATES FEW OR NO CLOUDS BELOW 12,000 FEET WITH NO
SIGNIFICANT WEATHER AND/OR OBSTRUCTIONS TO VISIBILITY.

* - THESE STATIONS ARE NOT NWS STATIONS...THUS NOT UNDER NWS
QUALITY CONTROL.  THEY ALSO DO NOT REPORT WEATHER SUCH
AS PRECIPITATION OR FOG.

IAZ001>003-012>014-020>022-031>034-043>046-231700-
   NORTHWEST IOWA

CITY           SKY/WX    TMP DP  RH WIND       PRES   REMARKS
CARROLL *      MOSUNNY   23  21  93 NW12      30.23R WCI  12
CHEROKEE *     CLOUDY    20  19  93 W7        30.26S WCI  11
DENISON *      PTSUNNY   23  21  93 NW9       30.26R FOG     WCI  13
LE MARS *      CLOUDY    18  18 100 NW10      30.28R WCI   6
ORANGE CITY *  CLOUDY    18  18 100 NW9       30.25R FOG     WCI   6
SHELDON *      CLOUDY    19  19 100 NW13      30.22R WCI   7
SIOUX CITY     CLOUDY    19  16  88 NW12      30.29R WCI   7
SPENCER        CLOUDY    22  17  81 NW14      30.23R WCI   9
STORM LAKE *   CLOUDY    19  18  93 NW15      30.21F WCI   5
$$

IAZ055>058-069>071-079>083-090>094-231700-
   SOUTHWEST IOWA

CITY           SKY/WX    TMP DP  RH WIND       PRES   REMARKS
ATLANTIC *     SUNNY     28  27  93 NW7       30.27R WCI  21
AUDUBON *      SUNNY     27  23  86 NW5       30.23S WCI  21
CLARINDA *     MOSUNNY   30  30 100 W6        30.32R WCI  24
COUNCIL BLFS * MOSUNNY   25  25 100 N5        30.28R WCI  19
CRESTON *      SUNNY     28  27  93 W9        30.26S WCI  20
HARLAN  *      SUNNY     25  25 100 NW7       30.29R WCI  17
LAMONI         CLOUDY    31  26  82 NW8       30.26S WCI  23
RED OAK *      MOSUNNY   28  27  93 W5        30.30R WCI  23
SHENANDOAH *   SUNNY     30  27  86 W6        30.32R WCI  24
$$

IAZ047>049-059>061-072>074-084-231700-
   CENTRAL IOWA

CITY           SKY/WX    TMP DP  RH WIND       PRES   REMARKS
AMES           MOSUNNY   29  23  78 W9        30.24R WCI  20
ANKENY *       MOSUNNY   30  25  80 W10G18    30.28R WCI  21
BOONE *        MOSUNNY   27  25  93 MISG      30.22R
CHARITON *     CLOUDY    32  27  80 NW12      30.25S WCI  23
DES MOINES     MOSUNNY   31  24  75 W12       30.27R WCI  22
GRINNELL*      MOSUNNY   32  27  83 W13       30.24R WCI  22
KNOXVILLE *    MOSUNNY   34  25  69 NW10G17   30.24R WCI  26
MARSHALLTOWN   MOSUNNY   30  25  81 W12       30.22R WCI  20
NEWTON *       MOSUNNY   30  27  86 W12       30.25R WCI  21
PELLA *        SUNNY     33  27  78 W10       30.26S WCI  25
PERRY *        FAIR      28  26  92 W7        30.26R WCI  21
$$

IAZ004>006-015-016-023>025-035-036-231700-
   NORTH CENTRAL IOWA

CITY           SKY/WX    TMP DP  RH WIND       PRES   REMARKS
ALGONA *       SUNNY     21 N/A N/A W15       30.22R HAZE    WCI   8
CLARION *      CLOUDY    23  23 100 W14       30.21S WCI  11
ESTHERVILLE    MOSUNNY   20  16  84 W15       30.21R WCI   6
FORT DODGE *   CLOUDY    24  20  84 NW9       30.22F FOG     WCI  14
MASON CITY       N/A     24  19  81 MISG      30.20R
FOREST CITY *  FAIR      23  21  93 W13       30.20R WCI  11
WEBSTER CITY * CLOUDY    23  19  86 NW16      30.20S FOG     WCI  10
IOWA FALLS *   CLOUDY    25  23  93 NW14      30.21S FOG     WCI  13
$$

IAZ007>011-017>019-026>030-037>042-050>054-066-231700-
   NORTHEAST IOWA

CITY           SKY/WX    TMP DP  RH WIND       PRES   REMARKS
CEDAR RAPIDS   CLOUDY    34  30  85 W14       30.20R WCI  25
CHARLES CITY * PTSUNNY   28  28 100 W17       30.19R WCI  16
CLINTON *      CLOUDY    34  32  92 W18       30.20R WCI  23
DECORAH *      CLOUDY    30  27  86 W10G17    30.14R WCI  21
DUBUQUE        CLOUDY    33  30  88 W14       30.16R WCI  23
MONTICELLO *   PTSUNNY   34  32  93 W12G17    30.19R WCI  25
OELWEIN *      CLOUDY    30  30 100 W15       30.19R WCI  19
WATERLOO       PTSUNNY   29  24  82 NW10      30.21R WCI  20
$$

IAZ064-065-067-068-078-231700-
   EAST CENTRAL IOWA

CITY           SKY/WX    TMP DP  RH WIND       PRES   REMARKS
DAVENPORT      CLOUDY    35  31  85 W13       30.23R WCI  26
IOWA CITY      PTSUNNY   38  30  73 W13       30.25R WCI  30
MT. PLEASANT * CLOUDY    34  32  93 W9        30.25S WCI  26
MUSCATINE *    CLOUDY    36  32  87 W12       30.25R WCI  27
QUAD CITIES    CLOUDY    35  32  88 W17       30.22R WCI  25
$$

IAZ062-063-075>077-085>089-095>099-231700-
   SOUTHEAST IOWA

CITY           SKY/WX    TMP DP  RH WIND       PRES   REMARKS
BURLINGTON     CLOUDY    34  32  92 W8        30.26R WCI  27
FAIRFIELD *    CLOUDY    34  28  80 W13G18    30.25S WCI  25
FORT MADISON * CLOUDY    34  34 100 W10       30.27R WCI  26
KEOKUK *       CLOUDY    36  34  93 W7        30.27R WCI  30
OSKALOOSA *    PTSUNNY   33  29  85 W12       30.26R WCI  25
OTTUMWA          N/A     35  35 100 MISG      30.26R
WASHINGTON *   CLOUDY    36  34  93 W14G21    30.26R WCI  27
$$

ABBREVIATIONS USED IN REMARKS
   TC - TEMPERATURES IN CELSIUS
  WCI - WIND CHILL INDEX
   HX - HEAT INDEX
  VSB - VISIBILITY
$$





USA.gov is the U.S. government's official web portal to all federal, state and local government web resources and services.